Regional Weather Roundup
Issued by NWS Cleveland, OH

Home | Current Version | Previous Version | Graphics & Text | Print | Product List | Glossary On
Versions: 1 2 3 4 5 6 7 8 9 10 11 12 13 14 15 16 17 18 19 20 21 22 23 24 25 26 27 28 29 30 31 32 33 34 35 36 37 38 39 40 41 42 43 44 45 46 47 48 49 50
000
ASUS41 KCLE 261502
RWRCLE
OHIO REGIONAL WEATHER ROUNDUP
NATIONAL WEATHER SERVICE CLEVELAND, OH
1100 AM EDT WED JUL 26 2017

NOTE: "FAIR" INDICATES FEW OR NO CLOUDS BELOW 12,000 FEET WITH NO
SIGNIFICANT WEATHER AND/OR OBSTRUCTIONS TO VISIBILITY.

OHZ001>008-015>018-024>027-034-035-043-044-261600-
   NORTHWEST OHIO

CITY           SKY/WX    TMP DP  RH WIND       PRES   REMARKS
DEFIANCE       MOSUNNY  N/A N/A N/A S8        30.16F
FINDLAY        MOSUNNY   73  59  61 VRB6      30.16F
TOLEDO EXPRESS MOSUNNY   73  62  68 SW8       30.16S
TOLEDO EXEC    MOSUNNY   74  62  66 SW6       30.18S
LIMA           SUNNY     72  62  71 VRB7      30.18S
$$

OHZ009>014-019>023-028>033-038-089-261600-
   NORTHEAST OHIO

CITY           SKY/WX    TMP DP  RH WIND       PRES   REMARKS
CLE-HOPKINS    PTSUNNY   76  63  64 SW7       30.19F
CLE-LAKEFRONT  MOSUNNY   73  61  65 NW6       30.16F
CUY CO. ARPT   MOSUNNY   75  63  64 SW7       30.19S
LORAIN-ELYRIA  MOSUNNY   72  59  63 VRB3      30.19S
ASHTABULA      MOSUNNY   72  62  71 W6        30.21S
AKRON-CANTON   MOSUNNY   75  60  59 SW6       30.19S
WOOSTER        CLOUDY    72  60  66 S6        30.19F
MANSFIELD      CLOUDY    72  60  66 SE5       30.19F
YOUNGSTOWN     PTSUNNY   72  60  66 SW6       30.20F
$$

OHZ042-051>053-060>062-070>072-077>081-261600-
  SOUTHWEST OHIO

CITY           SKY/WX    TMP DP  RH WIND       PRES   REMARKS
CINC-COVINGTON MOSUNNY   76  66  71 VRB6      30.15F
CINC-LUNKEN    SUNNY     74  66  76 CALM      30.16F
HAMILTON       SUNNY     75  65  70 CALM      30.16F
DAYTON         MOSUNNY   71  58  63 VRB5      30.18S
WRIGHT-PAT AFB NOT AVBL
DAYTON GENERAL SUNNY     72  60  66 CALM      30.16F
WILMINGTON     SUNNY     70  63  78 VRB3      30.17F
$$

OHZ036-037-039>041-045>050-054>059-063>069-073>076-082>088-261600-
  CENTRAL AND SOUTHEAST OHIO

CITY           SKY/WX    TMP DP  RH WIND       PRES   REMARKS
COLUMBUS       MOSUNNY   74  61  63 E5        30.17F
OSU AIRPORT    CLOUDY    71  61  70 E7        30.17F
BOLTON FIELD   SUNNY     72  61  68 S5        30.18F
RICKENBACK AFB PTSUNNY   70  62  75 CALM      30.17S
NEWARK         MOSUNNY   72  60  66 VRB3      30.17F
MARION         MOSUNNY   70  59  68 CALM      30.19S
LANCASTER      SUNNY     71  61  70 CALM      30.18S
ZANESVILLE     MOSUNNY   73  61  65 E5        30.18F
NEW PHILLY     NOT AVBL
$$



USA.gov is the U.S. government's official web portal to all federal, state and local government web resources and services.